Location: City of Moscow
(46.7306°N, 116.9989°W)
Time: 03:07:46
(UTC+00:00)

Tiangong - Pass Details

Date: 21 February 2026
Orbit: 382 x 391 km, 41.5° (Epoch: 6 March)

Event Time Altitude Azimuth Distance (km) Brightness Sun altitude
Rises 02:08:08 0° 264° (W) 2,260 4.3 -8.8°
Reaches altitude 10° 02:10:37 10° 245° (WSW) 1,402 2.0 -9.2°
Maximum altitude 02:12:52 18° 199° (SSW) 1,015 0.3 -9.6°
Drops below altitude 10° 02:15:07 10° 154° (SSE) 1,394 0.5 -10.0°
Enters shadow 02:16:35 - 140° (SE) 1,878 1.0 -10.2°
